sat.trackr.live / text

‹ back to catalog

UNKNOWN

NORAD 81816

UNKNOWN UNKNOWN UNKNOWN

§ Identity

Operator
Country
Launch date
Launch site
Launch vehicle
Mass (kg)
RCS (m²)

External: N2YO · Heavens-Above

§ Orbital elements

Epoch: 2026-05-24T00:31:50.412000Z

Period
103.60 min
Inclination
66.2377°
Eccentricity
0.0167647
Mean motion
13.89924441 rev/d
Perigee alt
806.4 km
Apogee alt
1,051.4 km
Semi-major
7,307.0 km
B*
9.5207e-4
RAAN
251.3801°
Arg perigee
153.7026°
Mean anomaly
207.2682°
Rev number
63,189

§ Raw data

UNKNOWN1 81816U          26144.02211125  .00001234  00000+0  95207-3 0  99902 81816  66.2377 251.3801 0167647 153.7026 207.2682 13.89924441631891

JSON: /api/v1/satellites/81816 · /tle

For live sub-satellite position, see the globe view (requires WebGL).

§ Visibility from observer

Set your observer location to see the next 7 days of passes ≥ 10°. The values pass through the URL so the page stays shareable.

No JS? Fill the form by hand. The geolocation button needs JavaScript.